星链-34721 (STARLINK-34721)
导读
STARLINK-34721是美国于2025年7月30日发射的星链卫星,星链项目是由SpaceX打造的低轨卫星互联网星座计划,旨在为全球提供高速低延迟互联网服务,该卫星的发射进一步扩充了星链星座的卫星规模,推进了星座全球覆盖组网的进程。
Basic Information
目录编号:
65039
目录名称:
STARLINK-34721
国际标识:
2025-161AA
轨道中心:
EARTH
卫星名称:
星链-34721
卫星全名:
星链-34721 (STARLINK-34721)
卫星状态:
在轨 (已飞行401 天)
发射日期:
2025-07-30 UTC
国别 :
美国
(US)
星等 :
--
Orbit Information
| 数据来源 | 国际轨道数据 |
| 星历时间: | 2026-09-02T11:07:24+0800 1天前 查看轨道信息 |
| 半长轴: | 6840.811km |
| 偏心率: | 0.0001326 |
| 轨道倾角: | 53.158° |
| 近地点辐角 | 94.175° |
| 升交点赤经 | 193.232° |
| 平近点角 | 265.940° |
| 近地点: | 461.766km |
| 远地点: | 463.582km |
| 周期: | 93.847分钟 |
| 每日圈数: | 15.344101 |
Detailed Information
固有亮度:
5
最大亮度:
2.5
卫星平台:
Starlink V1.0
覆盖范围:
全球
运营商:
太空探索技术公司
运营商所在国:
美国
制造商(研发单位):
太空探索技术公司
制造商所在国:
美国
使用方式:
暂无
Satellite Introduction
Starlink 计划是 SpaceX 推出的全球卫星互联网项目,通过发射低轨道卫星,为全球尤其是偏远地区提供高速、低延迟的互联网服务。自 2019 年起,Starlink 已部署数千颗卫星,旨在缩小全球数字鸿沟,推动互联网普及。该项目还为军事、航空等行业提供通信支持,带来广泛经济效益。
2D Orbit Map
3D Orbit Map
Orbit Altitude Analysis Chart
Orbit Inclination Analysis Chart
Orbit Comprehensive Analysis Chart
View Comprehensive ChartConjunction Data List
| Event ID | Objects | TCA | Miss Dist (km) | Collision Risk Probability | Collision Risk Index (CRI) | Action |
|---|---|---|---|---|---|---|
| CDM_260905-072306-503906-833521 |
STARLINK-34721
(65039)
STARLINK-37217
(68335) | 2026-09-05T 07:23:23+0000 |
0.761 km
远距离 | 3.101888E-5 中风险 | 0.65 | |
| CDM_260905-031806-043206-503921 |
STARLINK-32246
(60432)
STARLINK-34721
(65039) | 2026-09-05T 03:18:24+0000 |
0.901 km
远距离 | 2.440816E-5 中风险 | 0.63 | |
| CDM_260830-194305-475006-503921 |
YAOGAN-36 04C
(54750)
STARLINK-34721
(65039) | 2026-08-30T 19:43:35+0000 |
1.093 km
极远距离 | 1.507197E-5 中风险 | 0.59 | |
| CDM_260830-025605-419806-503921 |
STARLINK-5246
(54198)
STARLINK-34721
(65039) | 2026-08-30T 02:56:17+0000 |
2.371 km
极远距离 | 1.335325E-6 低风险 | 0.38 | |
| CDM_260904-113805-084006-503922 |
STARLINK-3295
(50840)
STARLINK-34721
(65039) | 2026-09-04T 11:38:20+0000 |
2.725 km
极远距离 | 1.15714E-6 低风险 | 0.36 | |
| CDM_260905-054906-503906-833521 |
STARLINK-34721
(65039)
STARLINK-37217
(68335) | 2026-09-05T 05:49:36+0000 |
2.268 km
极远距离 | 1.095687E-6 低风险 | 0.36 | |
| CDM_260902-011306-460606-503921 |
STARLINK-34073
(64606)
STARLINK-34721
(65039) | 2026-09-02T 01:13:30+0000 |
2.876 km
极远距离 | 7.173879E-7 极低风险 | 0.32 |

